Flag for Israel Weather past 2 weeks in Petah Tikva, Israel

Now
70 °F

Passing clouds.


Feels Like: 70 °F
Forecast: 54 / 74 °F
Wind: 2 mph from North

Location: Ben Gurion International Airport

Current Time: Apr 18, 2015 at 11:20:58 AM

Latest Report: Apr 18, 2015 at 10:50 AM


Visibility: N/A

Pressure: 30.24 "Hg

Humidity: 53%

Dew point: 52 °F

Location of Petah TikvaLocation

Historic Weather in Petah Tikva — Graph

°F

Petah Tikva temperature yesterday

Maximum temperature yesterday: 72 °F (at 2:20 PM)
Minimum temperature yesterday: 59 °F (at 1:50 AM)
Average temperature yesterday: 64 °F

Past Weeks' High & Low Weather Summary

 TemperatureHumidityPressure
High100 °F (Apr 8, 3:20 PM)94% (Apr 4, 7:20 AM)30.30 "Hg (Apr 4, 7:20 AM)
Low46 °F (Apr 12, 1:50 PM)9% (Apr 8, 3:50 PM)29.56 "Hg (Apr 9, 2:20 AM)
Average63 °F66%30.00 "Hg
* Reported Apr 3 10:20 AM — Apr 18 10:20 AM, Petah Tikva, Weather by CustomWeather, © 2015

Note: Actual official high and low records may vary slightly from our data, if they occured in-between our weather recording intervals... More about our weather records

Advertising

Petah Tikva weather history for previous 24 hours

 ConditionsComfort  
Time TempWeatherWind HumidityBarometerVisibility
10:20 AM
Sat, Apr 18
68 °FPassing clouds.2 mph56%30.24 "HgN/A
9:50 AM68 °FScattered clouds.1 mph60%30.24 "HgN/A
9:20 AM64 °FScattered clouds.2 mph73%30.24 "HgN/A
8:50 AM63 °FScattered clouds.2 mph73%30.24 "HgN/A
8:20 AM59 °FPartly sunny.2 mph77%30.24 "HgN/A
7:50 AM57 °FPassing clouds.6 mph77%30.24 "HgN/A
7:20 AM57 °FSunny.3 mph77%30.24 "Hg10 mi
6:50 AM57 °FPassing clouds.3 mph77%30.24 "HgN/A
6:20 AM55 °FPassing clouds.2 mph82%30.24 "HgN/A
5:50 AM57 °FPassing clouds.5 mph82%30.24 "HgN/A
5:20 AM55 °FPassing clouds.2 mph88%30.24 "Hg6 mi
4:50 AM57 °FClear.2 mph82%30.24 "Hg10 mi
4:20 AM57 °FPassing clouds.5 mph82%30.24 "HgN/A
3:50 AM57 °FPassing clouds.3 mph88%30.24 "HgN/A
3:20 AM57 °FPassing clouds.3 mph88%30.24 "HgN/A
2:50 AM57 °FPassing clouds.1 mph88%30.24 "HgN/A
2:20 AM57 °FPassing clouds.5 mph88%30.24 "HgN/A
1:50 AM59 °FPassing clouds.2 mph82%30.24 "HgN/A
1:20 AM59 °FPassing clouds.3 mph82%30.27 "HgN/A
12:50 AM59 °FPassing clouds.2 mph88%30.27 "HgN/A
12:20 AM61 °FPassing clouds.2 mph83%30.27 "HgN/A
11:50 PM
Fri, Apr 17
61 °FPassing clouds.3 mph83%30.27 "HgN/A
11:20 PM61 °FPassing clouds.2 mph83%30.27 "HgN/A
10:50 PM63 °FPassing clouds.2 mph77%30.27 "HgN/A
10:20 PM63 °FPassing clouds.3 mph77%30.27 "HgN/A
9:50 PM63 °FPassing clouds.3 mph77%30.27 "HgN/A
9:20 PM63 °FPassing clouds.3 mph77%30.27 "HgN/A
8:50 PM64 °FPassing clouds.7 mph73%30.27 "HgN/A
8:20 PM64 °FPassing clouds.7 mph73%30.27 "HgN/A
7:50 PM64 °FPassing clouds.6 mph73%30.27 "HgN/A
7:20 PM64 °FSunny.6 mph73%30.24 "Hg10 mi
6:50 PM66 °FSunny.8 mph68%30.24 "Hg10 mi
6:20 PM66 °FSunny.9 mph68%30.24 "Hg10 mi
5:50 PM68 °FSunny.10 mph64%30.24 "Hg10 mi
5:20 PM68 °FSunny.10 mph64%30.24 "Hg10 mi
4:50 PM70 °FSunny.10 mph60%30.24 "Hg10 mi
4:20 PM70 °FSunny.15 mph57%30.24 "Hg10 mi
3:50 PM70 °FSunny.15 mph53%30.24 "Hg10 mi
3:20 PM70 °FPassing clouds.15 mph53%30.24 "HgN/A
2:50 PM70 °FPassing clouds.14 mph50%30.24 "HgN/A
2:20 PM72 °FPassing clouds.13 mph50%30.27 "HgN/A
1:50 PM70 °FPassing clouds.12 mph46%30.27 "HgN/A
1:20 PM70 °FPassing clouds.10 mph57%30.27 "HgN/A
12:50 PM70 °FPassing clouds.10 mph57%30.27 "HgN/A
12:20 PM70 °FPassing clouds.8 mph57%30.27 "HgN/A
11:50 AM70 °FScattered clouds.8 mph57%30.27 "HgN/A
11:20 AM68 °FScattered clouds.8 mph64%30.27 "HgN/A
Weather by CustomWeather, © 2015

See weather overviewHow to use our weather pages